Regional Weather Roundup
Issued by NWS Wakefield, VA

Home | Current Version | Previous Version | Graphics & Text | Print | Product List | Glossary On
Versions: 1 2 3 4 5 6 7 8 9 10 11 12 13 14 15 16 17 18 19 20 21 22 23 24 25 26 27 28 29 30 31 32 33 34 35 36 37 38 39 40 41 42 43 44 45 46 47 48 49 50
000
ASUS41 KAKQ 310910
RWRAKQ

REGIONAL WEATHER ROUNDUP
NATIONAL WEATHER SERVICE WAKEFIELD VA
500 AM EDT THU JUL 31 2014

Note: "fair" indicates few or no clouds below 12,000 feet with no
significant weather and/or obstructions to visibility. * = Denotes
station may not report precipitation (e.g., rain,snow,etc.),
thunder or fog.

VAZ042-051-052>054-056-311000-
NORTHERN VIRGINIA

CITY           SKY/WX    TMP DP  RH WIND       PRES   REMARKS
WASH NATIONAL  CLEAR     68  59  73 SW3       30.08R
DULLES         CLEAR     59  56  89 CALM      30.07S
FORT BELVOIR   CLEAR     58  57  97 CALM      30.08S
QUANTICO       CLEAR     66  58  75 SW7       30.09R
FREDERICKSBRG* CLEAR     60  60  97 CALM      30.08R
STAFFORD*      CLEAR     55  55 100 CALM      30.12S FOG
WARRENTON      CLEAR     56  56 100 CALM      30.07S FOG
CULPEPER*      CLEAR    N/A N/A N/A CALM      30.08R FOG
MANASSAS*      NOT AVBL
LEESBURG*      CLEAR     59  59 100 CALM      30.08R
WINCHESTER     CLEAR     57  55  94 CALM      30.08R
$$

VAZ048-049-060>072-079>083-311000-
CENTRAL AND SOUTH CENTRAL VIRGINIA...AND NORTH CENTRAL NORTH CAROLINA

CITY           SKY/WX    TMP DP  RH WIND       PRES   REMARKS
RICHMOND       CLEAR     66  61  84 CALM      30.09R
CHESTERFIELD*  SUNNY     61  52  72 CALM      30.10R
HANOVER        CLEAR     60  59  96 CALM      30.10R FOG
TAPPAHANNOCK*  CLEAR     63  59  87 CALM      30.10R
CHARLOTTSVILLE CLEAR     60  56  86 SW3       30.09R
ORANGE*        CLEAR     55  55 100 CALM      30.09S FOG
LOUISA*        CLEAR     63  57  82 S3        30.08R
FARMVILLE*       N/A     57  55  94 CALM      30.08S FOG
SOUTH HILL*    PTCLDY    63  63 100 CALM      30.15R
ROANOKE RAPIDS NOT AVBL
RALEIGH        MOCLDY    67  63  87 CALM      30.09S
$$

VAZ088>098-311000-
SOUTHEAST VIRGINIA

CITY           SKY/WX    TMP DP  RH WIND       PRES   REMARKS
NORFOLK        CLEAR     68  61  78 CALM      30.10R
VIRGINIA BEACH PTCLDY    63  61  93 CALM      30.09S
NORFOLK NAVAL  PTCLDY    70  62  76 CALM      30.11S
WEST POINT*    CLEAR     69  64  82 SE3       30.11R
NEWPORT NEWS   CLEAR     65  61  87 CALM      30.10R
LANGLEY AFB    CLEAR     65  65 100 CALM      30.09S
FORT EUSTIS    CLEAR     70  66  86 VRB5      30.08S
WILLIAMSBURG*  CLEAR     70  66  88 S6        30.10S
FRANKLIN*      PTCLDY    63 N/A N/A CALM      30.10S
WAKEFIELD      CLEAR     62  59  90 CALM      30.10R FOG
$$

VAZ020-022-025-037-045-311000-
WESTERN AND SOUTHWEST VIRGINIA

CITY           SKY/WX    TMP DP  RH WIND       PRES   REMARKS
STAUNTON*      CLEAR     55  53  92 CALM      30.13R
HOT SPRINGS VA CLEAR     55  50  81 W10       30.21R
LYNCHBURG      PTCLDY    57  57 100 CALM      30.12S
DANVILLE       PTCLDY    63  60  90 CALM      30.10S
MARTINSVILLE   PTCLDY    56  56  98 NW3       30.14R FOG
ROANOKE        PTCLDY    59  55  87 CALM      30.14R
BLACKSBURG     PTCLDY    54  54 100 CALM        N/A  FOG
DUBLIN*        PTCLDY    54  53  97 CALM      30.17S
MARION*        CLEAR     53  51  93 CALM      30.20S FOG
HILLSVILLE*    PTCLDY    55  53  94 SW5       30.17S
RICHLANDS*     PTSUNNY   57  55  92 CALM      30.17S
WISE*          PTCLDY    57  55  94 CALM      30.17S
ABINGDON*      PTCLDY    58  56  91 CALM      30.15S
$$

MDZ021>025-VAZ099-100-311000-
SOUTHERN MARYLAND AND THE DELMARVA PENINSULA

CITY           SKY/WX    TMP DP  RH WIND       PRES   REMARKS
PATUXENT RIVER PTCLDY    65  61  87 SW3       30.08R
BAY BRIDGE APT   N/A     70  61  73 S6        30.07S
LEONARDTOWN    CLEAR     64  59  82 S3        30.10R
DOVER          CLEAR     61  57  85 S6        30.06R
GEORGETOWN     CLEAR     61  56  83 S3        30.10R
EASTON         CLEAR     66  62  85 CALM      30.11S
CAMBRIDGE      CLEAR     61  57  88 CALM      30.08R
SALISBURY      CLEAR     60  55  83 CALM      30.09S
OCEAN CITY     CLEAR     56  54  93 CALM      30.09S
WALLOPS ISLAND CLEAR     67  61  81 SW5       30.10R
ACCOMACK*        N/A     63  59  88 S5        30.09S
$$

NCZ012>017-030>032-311000-
EASTERN NORTH CAROLINA

CITY           SKY/WX    TMP DP  RH WIND       PRES   REMARKS
ELIZABETH CITY MOCLDY    66  62  87 CALM      30.10R
AHOSKIE*       PTCLDY    62  60  94 CALM      30.10S
EDENTON*       MOCLDY    65  63  94 CALM      30.09S
CURRITUCK*     MOCLDY    64  59  85 CALM      30.11R
KILL DEVIL HLS MOCLDY    71  63  75 CALM      30.08S
MANTEO         NOT AVBL
CAPE HATTERAS  PTCLDY    73  65  75 NE6       30.08R
GOLDSBORO      CLOUDY    69  68  98 E2        30.07R
WASHINGTON     CLOUDY    66  63  91 CALM      30.09R
GREENVILLE     MOCLDY    64  64 100 CALM      30.10S
NEW BERN       PTCLDY    69  65  86 CALM      30.09R
WILMINGTON     PTCLDY    70  67  90 CALM      30.05F
$$

VAZ048-311000-
ELSEWHERE

CITY           SKY/WX    TMP DP  RH WIND       PRES   REMARKS
HARRISBURG PA  PTCLDY    64  61  90 CALM      30.05R
BALTIMORE      PTCLDY    59  56  89 CALM      30.06S
ANNAPOLIS      CLEAR     66  59  78 CALM      30.07R
ANDREWS AFB    CLEAR     60  58  92 S2        30.08R
WILMINGTON DE  CLEAR     63  56  78 S6        30.07F
PHILADELPHIA   PTCLDY    66  57  72 S5        30.08R
WILDWOOD NJ*   CLEAR     61  57  88 CALM      30.10R
ATLANTIC CITY  CLEAR     57  54  89 CALM      30.09R
HENDERSON NC   MOCLDY    64  62  94 CALM      30.09S FOG
GREENSBORO     MOCLDY    66  62  87 N5        30.10R
ROCKY MOUNT    MOCLDY    65  64  97 CALM      30.09S
FAYETTEVILLE   CLOUDY    71  66  84 NE5       30.07S
CHARLOTTE      CLOUDY    69  63  81 E3        30.09R
$$

VAZ100-311000-
MARINE

STATION/POSITION TIME  TEMP    WIND        PRES    WAVE   SWELL
                       AIR SEA DIR/SP/G            HT/PER HT/PER
                 (UTC) (F)     (DEG/KT/KT) (MB)    (FT/S) (FT/S)
44066 TX TWR #4  0900   72 74  240/  8/  8 1018.9R   3/ 8   3/ 8
CAPE MAY NJ      0900   68 76  190/  4/  5 1018.3R
LEWES DE         0900   65 72  200/  5/  7 1018.4S
15NM E FENWICK I 0900   72 73              1019.4R   2/ 8
OCEAN-CITY-INLET 0900   67 71  250/  3/  3 1018.5S
WACHAPREAGUE VA  0900   64 78   CALM  /  1 1018.9S
THOMAS POINT MD  0900   71 77  210/ 13/ 13 1018.8R
GOOSES REEF MD   0900   72     230/ 14/ 16 1018.6R
COVE POINT MD    0900   69     230/ 10/ 12 1018.3R
SOLOMONS ISLAND  0900      79                N/A
BISHOPS HEAD MD  0900   74 76  210/ 11/ 13 1018.0S
PINEY POINT MD   0900          230/ 14/ 16   N/A
POTOMAC MD       0900   72     220/ 12/ 16 1017.6S
CAMBRIDGE MD     0900   66 78  180/  3/  4 1018.2R
LEWISETTA VA     0900   68 77  230/  7/  9 1018.4R
RAPPAHANNOCK LGT 0900          200/ 11/ 12 1019.2S
STINGRAY PT      0900   73     220/  8/ 12 1019.2S
YORK RVR RNG VA  0900   73     210/ 10/ 11 1018.4R
YORKTOWN VA      0900   70 79  210/  6/  7 1018.6R
JAMESTOWN VA     0900   68     200/  8/ 10   N/A
DOMINION TERM VA 0900   72     190/  5/  6 1019.0R
KIPTOPEKE VA     0900      80  220/  7/  9   N/A
CHES BAY BRIDGE  0900   72 76  180/  6/  7 1018.4R
CAPE HENRY VA    0900   71     190/  6/  7 1017.7S
WILLOUBY STN VA  0900          190/  5/  6 1018.3R
S CRANEY ISL VA  0900          180/  4/  6 1019.1R
CAPE HENRY BUOY  0900      75                N/A     2/ 7
1ST LANDING BUOY 0900   72     200/  4/  6 1018.6S
CAPE CHARLES BUO 0900      76                N/A     2/ 8
OFFSHORE WE BUOY 0900      77                N/A     3/ 7
64NM E OF VA BCH 0900   75 78  140/  4/  6 1018.9R   2/ 8   2/ 8
DUCK PIER NC     0900   75 76  130/  6/  7 1018.2S
44056 DUCK FRF   0900                        N/A     2/ 7
OREGON INLET NC  0900   74 79   90/  4/  6 1018.6R
HATTERAS NC      0900   75 80   70/  3/  5 1018.7R
DIAMOND SHLS NC  0900          VRB 10/ 12  1018.0R   4/ 7   3/ 7
CAPE LOOKOUT NC  0800   79      90/ 12/ 12 1017.8R
$$



USA.gov is the U.S. government's official web portal to all federal, state and local government web resources and services.